Time,TemperatureF,DewpointF,PressureIn,WindDirection,WindDirectionDegrees,WindSpeedMPH,WindSpeedGustMPH,Humidity,HourlyPrecipIn,Conditions,Clouds,dailyrainin,SoftwareType,DateUTC
2013-10-22 00:00:00,50.7,42.0,29.47,SSW,202,0.0,0.0,73,0.00,,,0.00,Rainwise IP-100,2013-10-22 04:00:00,
2013-10-22 00:01:00,50.6,42.0,29.47,SSW,202,0.0,0.0,73,0.00,,,0.00,Rainwise IP-100,2013-10-22 04:01:00,
2013-10-22 00:02:00,50.4,42.0,29.47,SW,225,2.1,0.0,72,0.00,,,0.00,Rainwise IP-100,2013-10-22 04:02:00,
2013-10-22 00:03:00,50.4,42.0,29.47,WSW,247,0.0,5.0,72,0.00,,,0.00,Rainwise IP-100,2013-10-22 04:03:00,
2013-10-22 00:04:00,50.3,41.0,29.47,WSW,247,1.9,5.0,72,0.00,,,0.00,Rainwise IP-100,2013-10-22 04:04:00,
2013-10-22 00:09:00,50.7,41.0,29.46,WSW,247,1.6,3.0,69,0.00,,,0.00,Rainwise IP-100,2013-10-22 04:09:00,
2013-10-22 00:14:00,51.2,40.0,29.46,WSW,247,1.4,3.0,67,0.00,,,0.00,Rainwise IP-100,2013-10-22 04:14:00,
2013-10-22 00:19:00,51.2,40.0,29.46,South,180,0.0,4.0,67,0.00,,,0.00,Rainwise IP-100,2013-10-22 04:19:00,
2013-10-22 00:24:00,51.1,40.0,29.46,SW,225,2.3,2.3,67,0.00,,,0.00,Rainwise IP-100,2013-10-22 04:24:00,
2013-10-22 00:29:00,51.0,40.0,29.46,SSW,202,0.0,4.0,67,0.00,,,0.00,Rainwise IP-100,2013-10-22 04:29:00,
2013-10-22 00:34:00,51.1,40.0,29.46,SSW,202,1.9,6.0,66,0.00,,,0.00,Rainwise IP-100,2013-10-22 04:34:00,
2013-10-22 00:40:00,51.1,40.0,29.46,SSW,202,4.9,4.9,66,0.00,,,0.00,Rainwise IP-100,2013-10-22 04:40:00,
2013-10-22 00:45:00,51.1,40.0,29.45,SSW,202,1.2,5.0,66,0.00,,,0.00,Rainwise IP-100,2013-10-22 04:45:00,
2013-10-22 00:50:00,51.4,40.0,29.46,SW,225,2.3,7.0,65,0.00,,,0.00,Rainwise IP-100,2013-10-22 04:50:00,
2013-10-22 00:55:00,51.8,40.0,29.46,South,180,2.8,5.0,65,0.00,,,0.00,Rainwise IP-100,2013-10-22 04:55:00,
2013-10-22 01:00:00,52.2,40.0,29.46,SW,225,5.4,11.0,64,0.00,,,0.00,Rainwise IP-100,2013-10-22 05:00:00,
2013-10-22 01:05:00,52.5,40.0,29.46,South,180,5.4,11.0,63,0.00,,,0.00,Rainwise IP-100,2013-10-22 05:05:00,
2013-10-22 01:10:00,52.7,40.0,29.46,WSW,247,4.2,9.0,62,0.00,,,0.00,Rainwise IP-100,2013-10-22 05:10:00,
2013-10-22 01:15:00,52.7,40.0,29.46,West,270,4.0,9.0,62,0.00,,,0.00,Rainwise IP-100,2013-10-22 05:15:00,
2013-10-22 01:20:00,52.7,40.0,29.46,WSW,247,4.9,7.0,62,0.00,,,0.00,Rainwise IP-100,2013-10-22 05:20:00,
2013-10-22 01:25:00,52.6,40.0,29.46,WSW,247,1.9,8.0,62,0.00,,,0.00,Rainwise IP-100,2013-10-22 05:25:00,
2013-10-22 01:30:00,52.6,40.0,29.46,WSW,247,3.5,8.0,62,0.00,,,0.00,Rainwise IP-100,2013-10-22 05:30:00,
2013-10-22 01:35:00,52.5,40.0,29.46,WSW,247,2.8,5.0,62,0.00,,,0.00,Rainwise IP-100,2013-10-22 05:35:00,
2013-10-22 01:40:00,52.3,39.0,29.46,SW,225,3.7,5.0,62,0.00,,,0.00,Rainwise IP-100,2013-10-22 05:40:00,
2013-10-22 01:45:00,52.1,40.0,29.46,SW,225,2.8,5.0,63,0.00,,,0.00,Rainwise IP-100,2013-10-22 05:45:00,
2013-10-22 01:50:00,51.8,40.0,29.46,SW,225,2.8,4.0,64,0.00,,,0.00,Rainwise IP-100,2013-10-22 05:50:00,
2013-10-22 01:56:00,51.4,40.0,29.45,SSW,202,4.2,5.0,65,0.00,,,0.00,Rainwise IP-100,2013-10-22 05:56:00,
2013-10-22 02:01:00,51.2,40.0,29.45,SW,225,3.3,5.0,65,0.00,,,0.00,Rainwise IP-100,2013-10-22 06:01:00,
2013-10-22 02:06:00,51.1,40.0,29.45,SW,225,4.0,5.0,65,0.00,,,0.00,Rainwise IP-100,2013-10-22 06:06:00,
2013-10-22 02:11:00,51.0,40.0,29.45,SW,225,4.7,4.7,66,0.00,,,0.00,Rainwise IP-100,2013-10-22 06:11:00,
2013-10-22 02:16:00,50.9,40.0,29.45,SW,225,1.9,8.0,66,0.00,,,0.00,Rainwise IP-100,2013-10-22 06:16:00,
2013-10-22 02:21:00,50.8,39.0,29.45,SW,225,6.3,8.0,66,0.00,,,0.00,Rainwise IP-100,2013-10-22 06:21:00,
2013-10-22 02:26:00,50.8,39.0,29.44,SW,225,5.8,8.0,66,0.00,,,0.00,Rainwise IP-100,2013-10-22 06:26:00,
2013-10-22 02:31:00,50.7,40.0,29.44,SW,225,2.8,9.0,67,0.00,,,0.00,Rainwise IP-100,2013-10-22 06:31:00,
2013-10-22 02:36:00,50.6,40.0,29.44,SSW,202,3.7,7.0,67,0.00,,,0.00,Rainwise IP-100,2013-10-22 06:36:00,
2013-10-22 02:41:00,50.4,40.0,29.44,SSW,202,5.8,8.0,67,0.00,,,0.00,Rainwise IP-100,2013-10-22 06:41:00,
2013-10-22 02:46:00,50.2,39.0,29.44,SW,225,4.0,7.0,68,0.00,,,0.00,Rainwise IP-100,2013-10-22 06:46:00,
2013-10-22 02:51:00,50.1,39.0,29.44,SW,225,3.7,6.0,68,0.00,,,0.00,Rainwise IP-100,2013-10-22 06:51:00,
2013-10-22 02:56:00,50.1,40.0,29.43,SW,225,3.0,6.0,69,0.00,,,0.00,Rainwise IP-100,2013-10-22 06:56:00,
2013-10-22 03:01:00,50.0,40.0,29.43,SW,225,3.5,4.0,69,0.00,,,0.00,Rainwise IP-100,2013-10-22 07:01:00,
2013-10-22 03:06:00,49.8,40.0,29.43,SSW,202,5.4,5.4,69,0.00,,,0.00,Rainwise IP-100,2013-10-22 07:06:00,
2013-10-22 03:12:00,49.8,40.0,29.43,SSW,202,6.1,7.0,70,0.00,,,0.00,Rainwise IP-100,2013-10-22 07:12:00,
2013-10-22 03:17:00,49.8,40.0,29.43,SW,225,5.1,6.0,70,0.00,,,0.00,Rainwise IP-100,2013-10-22 07:17:00,
2013-10-22 03:22:00,49.8,40.0,29.42,SW,225,4.7,8.0,70,0.00,,,0.00,Rainwise IP-100,2013-10-22 07:22:00,
2013-10-22 03:27:00,49.7,40.0,29.42,SSW,202,4.9,7.0,70,0.00,,,0.00,Rainwise IP-100,2013-10-22 07:27:00,
2013-10-22 03:32:00,49.7,41.0,29.42,SSW,202,4.0,6.0,71,0.00,,,0.00,Rainwise IP-100,2013-10-22 07:32:00,
2013-10-22 03:37:00,49.6,41.0,29.42,SSW,202,5.8,9.0,71,0.00,,,0.00,Rainwise IP-100,2013-10-22 07:37:00,
2013-10-22 03:42:00,49.4,40.0,29.41,SSW,202,6.8,7.0,71,0.00,,,0.00,Rainwise IP-100,2013-10-22 07:42:00,
2013-10-22 03:47:00,49.5,41.0,29.41,SW,225,6.8,9.0,72,0.00,,,0.00,Rainwise IP-100,2013-10-22 07:47:00,
2013-10-22 03:52:00,49.5,41.0,29.41,SW,225,4.2,9.0,72,0.00,,,0.00,Rainwise IP-100,2013-10-22 07:52:00,
2013-10-22 03:57:00,49.5,41.0,29.41,WSW,247,4.0,7.0,72,0.00,,,0.00,Rainwise IP-100,2013-10-22 07:57:00,
2013-10-22 04:02:00,49.4,41.0,29.41,SW,225,4.9,7.0,73,0.00,,,0.00,Rainwise IP-100,2013-10-22 08:02:00,
2013-10-22 04:07:00,49.4,41.0,29.41,SW,225,4.4,10.0,73,0.00,,,0.00,Rainwise IP-100,2013-10-22 08:07:00,
2013-10-22 04:12:00,49.4,41.0,29.41,SSW,202,9.1,9.1,73,0.00,,,0.00,Rainwise IP-100,2013-10-22 08:12:00,
2013-10-22 04:17:00,49.3,41.0,29.41,SW,225,4.2,10.0,73,0.00,,,0.00,Rainwise IP-100,2013-10-22 08:17:00,
2013-10-22 04:22:00,49.3,41.0,29.40,South,180,3.7,9.0,74,0.00,,,0.00,Rainwise IP-100,2013-10-22 08:22:00,
2013-10-22 04:28:00,49.2,41.0,29.40,SSW,202,4.9,7.0,74,0.00,,,0.00,Rainwise IP-100,2013-10-22 08:28:00,
2013-10-22 04:33:00,49.1,41.0,29.40,SW,225,4.0,9.0,74,0.00,,,0.00,Rainwise IP-100,2013-10-22 08:33:00,
2013-10-22 04:38:00,49.1,41.0,29.40,SW,225,1.4,8.0,75,0.00,,,0.00,Rainwise IP-100,2013-10-22 08:38:00,
2013-10-22 04:43:00,49.1,41.0,29.40,WSW,247,1.2,4.0,75,0.00,,,0.00,Rainwise IP-100,2013-10-22 08:43:00,
2013-10-22 04:48:00,49.0,41.0,29.39,WSW,247,3.5,5.0,75,0.00,,,0.00,Rainwise IP-100,2013-10-22 08:48:00,
2013-10-22 04:53:00,48.8,41.0,29.39,SSW,202,1.4,5.0,75,0.00,,,0.00,Rainwise IP-100,2013-10-22 08:53:00,
2013-10-22 04:58:00,48.5,42.0,29.39,SW,225,1.2,5.0,76,0.00,,,0.00,Rainwise IP-100,2013-10-22 08:58:00,
2013-10-22 05:03:00,48.2,41.0,29.39,SW,225,0.0,2.0,77,0.00,,,0.00,Rainwise IP-100,2013-10-22 09:03:00,
2013-10-22 05:08:00,48.0,42.0,29.39,SE,135,0.0,1.0,78,0.00,,,0.00,Rainwise IP-100,2013-10-22 09:08:00,
2013-10-22 05:13:00,47.5,41.0,29.39,SE,135,0.0,1.0,80,0.00,,,0.00,Rainwise IP-100,2013-10-22 09:13:00,
2013-10-22 05:18:00,47.1,41.0,29.39,SE,135,1.6,1.6,82,0.00,,,0.00,Rainwise IP-100,2013-10-22 09:18:00,
2013-10-22 05:23:00,46.8,42.0,29.39,SE,135,0.0,1.0,83,0.00,,,0.00,Rainwise IP-100,2013-10-22 09:23:00,
2013-10-22 05:28:00,46.5,42.0,29.39,SE,135,0.0,1.0,83,0.00,,,0.00,Rainwise IP-100,2013-10-22 09:28:00,
2013-10-22 05:33:00,46.3,41.0,29.39,SE,135,0.0,0.0,84,0.00,,,0.00,Rainwise IP-100,2013-10-22 09:33:00,
2013-10-22 05:38:00,46.0,41.0,29.38,SE,135,0.0,0.0,85,0.00,,,0.00,Rainwise IP-100,2013-10-22 09:38:00,
2013-10-22 05:44:00,45.9,41.0,29.38,South,180,0.0,2.0,85,0.00,,,0.00,Rainwise IP-100,2013-10-22 09:44:00,
2013-10-22 05:49:00,45.8,41.0,29.38,South,180,0.0,0.0,85,0.00,,,0.00,Rainwise IP-100,2013-10-22 09:49:00,
2013-10-22 05:54:00,45.8,41.0,29.38,SW,225,1.6,4.0,85,0.00,,,0.00,Rainwise IP-100,2013-10-22 09:54:00,
2013-10-22 05:59:00,45.8,41.0,29.37,SSW,202,2.3,6.0,85,0.00,,,0.00,Rainwise IP-100,2013-10-22 09:59:00,
2013-10-22 06:04:00,46.2,41.0,29.38,SW,225,2.1,5.0,84,0.00,,,0.00,Rainwise IP-100,2013-10-22 10:04:00,
2013-10-22 06:09:00,46.5,42.0,29.37,WSW,247,3.3,5.0,84,0.00,,,0.00,Rainwise IP-100,2013-10-22 10:09:00,
2013-10-22 06:14:00,47.0,42.0,29.38,SW,225,4.9,6.0,83,0.00,,,0.00,Rainwise IP-100,2013-10-22 10:14:00,
2013-10-22 06:19:00,47.5,42.0,29.37,SSW,202,6.3,9.0,82,0.00,,,0.00,Rainwise IP-100,2013-10-22 10:19:00,
2013-10-22 06:24:00,47.8,42.0,29.37,SSW,202,6.1,7.0,81,0.00,,,0.00,Rainwise IP-100,2013-10-22 10:24:00,
2013-10-22 06:29:00,47.9,42.0,29.37,SW,225,3.3,8.0,80,0.00,,,0.00,Rainwise IP-100,2013-10-22 10:29:00,
2013-10-22 06:34:00,48.0,42.0,29.37,SSW,202,3.0,7.0,80,0.00,,,0.00,Rainwise IP-100,2013-10-22 10:34:00,
2013-10-22 06:40:00,47.9,42.0,29.37,SSW,202,4.0,7.0,80,0.00,,,0.00,Rainwise IP-100,2013-10-22 10:40:00,
2013-10-22 06:45:00,47.8,41.0,29.36,SSW,202,3.3,7.0,80,0.00,,,0.00,Rainwise IP-100,2013-10-22 10:45:00,
2013-10-22 06:50:00,47.7,41.0,29.37,SSW,202,3.0,5.0,80,0.00,,,0.00,Rainwise IP-100,2013-10-22 10:50:00,
2013-10-22 06:55:00,47.6,42.0,29.37,SSW,202,4.0,4.0,81,0.00,,,0.00,Rainwise IP-100,2013-10-22 10:55:00,
2013-10-22 07:00:00,47.6,42.0,29.36,SSW,202,3.5,4.0,81,0.00,,,0.00,Rainwise IP-100,2013-10-22 11:00:00,
2013-10-22 07:05:00,47.6,42.0,29.36,SW,225,3.5,7.0,81,0.00,,,0.00,Rainwise IP-100,2013-10-22 11:05:00,
2013-10-22 07:10:00,47.6,42.0,29.36,SW,225,4.4,5.0,81,0.00,,,0.00,Rainwise IP-100,2013-10-22 11:10:00,
2013-10-22 07:15:00,47.5,42.0,29.37,SW,225,5.4,6.0,82,0.00,,,0.00,Rainwise IP-100,2013-10-22 11:15:00,
2013-10-22 07:20:00,47.6,42.0,29.37,SW,225,3.7,6.0,82,0.00,,,0.00,Rainwise IP-100,2013-10-22 11:20:00,
2013-10-22 07:25:00,47.7,42.0,29.37,SW,225,4.0,7.0,82,0.00,,,0.00,Rainwise IP-100,2013-10-22 11:25:00,
2013-10-22 07:30:00,47.7,42.0,29.37,SSW,202,3.3,6.0,82,0.00,,,0.00,Rainwise IP-100,2013-10-22 11:30:00,
2013-10-22 07:35:00,47.6,42.0,29.36,SW,225,5.1,5.1,82,0.00,,,0.00,Rainwise IP-100,2013-10-22 11:35:00,
2013-10-22 07:40:00,47.6,42.0,29.36,SW,225,6.1,6.1,83,0.00,,,0.00,Rainwise IP-100,2013-10-22 11:40:00,
2013-10-22 07:45:00,47.6,42.0,29.37,SW,225,4.9,7.0,83,0.00,,,0.00,Rainwise IP-100,2013-10-22 11:45:00,
2013-10-22 07:50:00,47.6,42.0,29.36,SSW,202,4.7,7.0,83,0.00,,,0.00,Rainwise IP-100,2013-10-22 11:50:00,
2013-10-22 07:56:00,47.8,43.0,29.36,SSW,202,3.0,5.0,84,0.00,,,0.00,Rainwise IP-100,2013-10-22 11:56:00,
2013-10-22 08:01:00,47.8,43.0,29.36,South,180,1.4,4.0,84,0.00,,,0.00,Rainwise IP-100,2013-10-22 12:01:00,
2013-10-22 08:06:00,47.7,43.0,29.36,SW,225,1.4,2.0,84,0.00,,,0.00,Rainwise IP-100,2013-10-22 12:06:00,
2013-10-22 08:11:00,47.7,43.0,29.36,WSW,247,0.0,3.0,84,0.00,,,0.00,Rainwise IP-100,2013-10-22 12:11:00,
2013-10-22 08:16:00,47.8,43.0,29.36,SW,225,2.1,3.0,84,0.00,,,0.00,Rainwise IP-100,2013-10-22 12:16:00,
2013-10-22 08:21:00,47.8,43.0,29.36,SW,225,0.0,2.0,84,0.00,,,0.00,Rainwise IP-100,2013-10-22 12:21:00,
2013-10-22 08:26:00,47.8,43.0,29.36,SW,225,2.3,3.0,85,0.00,,,0.00,Rainwise IP-100,2013-10-22 12:26:00,
2013-10-22 08:31:00,47.9,44.0,29.36,SW,225,1.9,4.0,85,0.00,,,0.00,Rainwise IP-100,2013-10-22 12:31:00,
2013-10-22 08:36:00,47.9,44.0,29.36,South,180,2.8,5.0,85,0.00,,,0.00,Rainwise IP-100,2013-10-22 12:36:00,
2013-10-22 08:41:00,48.0,44.0,29.36,SW,225,3.3,5.0,85,0.00,,,0.00,Rainwise IP-100,2013-10-22 12:41:00,
2013-10-22 08:46:00,48.2,44.0,29.37,SSW,202,2.1,5.0,85,0.00,,,0.00,Rainwise IP-100,2013-10-22 12:46:00,
2013-10-22 08:51:00,48.2,44.0,29.36,South,180,2.8,6.0,85,0.00,,,0.00,Rainwise IP-100,2013-10-22 12:51:00,
2013-10-22 08:56:00,48.3,44.0,29.36,SSW,202,2.3,5.0,85,0.00,,,0.00,Rainwise IP-100,2013-10-22 12:56:00,
2013-10-22 09:01:00,48.5,45.0,29.36,SSW,202,2.8,2.8,85,0.00,,,0.00,Rainwise IP-100,2013-10-22 13:01:00,
2013-10-22 09:06:00,48.6,45.0,29.36,SSW,202,1.6,3.0,85,0.00,,,0.00,Rainwise IP-100,2013-10-22 13:06:00,
2013-10-22 09:12:00,48.6,45.0,29.36,South,180,0.0,4.0,85,0.00,,,0.00,Rainwise IP-100,2013-10-22 13:12:00,
2013-10-22 09:17:00,48.7,45.0,29.35,South,180,0.0,1.0,85,0.00,,,0.00,Rainwise IP-100,2013-10-22 13:17:00,
2013-10-22 09:22:00,48.7,45.0,29.35,South,180,0.0,0.0,85,0.00,,,0.00,Rainwise IP-100,2013-10-22 13:22:00,
2013-10-22 09:27:00,48.6,45.0,29.35,South,180,0.0,1.0,85,0.00,,,0.00,Rainwise IP-100,2013-10-22 13:27:00,
2013-10-22 09:32:00,48.7,45.0,29.36,West,270,3.5,3.5,85,0.00,,,0.00,Rainwise IP-100,2013-10-22 13:32:00,
2013-10-22 09:37:00,48.9,45.0,29.36,WNW,292,0.0,4.0,85,0.00,,,0.00,Rainwise IP-100,2013-10-22 13:37:00,
2013-10-22 09:42:00,49.0,45.0,29.35,ENE,67,0.0,1.0,85,0.00,,,0.00,Rainwise IP-100,2013-10-22 13:42:00,
2013-10-22 09:47:00,49.0,45.0,29.34,South,180,0.0,3.0,85,0.00,,,0.00,Rainwise IP-100,2013-10-22 13:47:00,
2013-10-22 09:52:00,49.0,45.0,29.34,ENE,67,0.0,1.0,85,0.00,,,0.00,Rainwise IP-100,2013-10-22 13:52:00,
2013-10-22 09:57:00,49.1,45.0,29.33,SSE,157,0.0,3.0,85,0.00,,,0.00,Rainwise IP-100,2013-10-22 13:57:00,
2013-10-22 10:02:00,49.3,45.0,29.33,SW,225,3.5,3.5,85,0.00,,,0.00,Rainwise IP-100,2013-10-22 14:02:00,
2013-10-22 10:07:00,49.4,45.0,29.33,SSW,202,2.1,4.0,85,0.00,,,0.00,Rainwise IP-100,2013-10-22 14:07:00,
2013-10-22 10:12:00,49.6,45.0,29.33,SE,135,0.0,4.0,84,0.00,,,0.00,Rainwise IP-100,2013-10-22 14:12:00,
2013-10-22 10:17:00,49.9,45.0,29.33,South,180,1.9,6.0,83,0.00,,,0.00,Rainwise IP-100,2013-10-22 14:17:00,
2013-10-22 10:22:00,50.2,45.0,29.33,SW,225,3.5,7.0,83,0.00,,,0.00,Rainwise IP-100,2013-10-22 14:22:00,
2013-10-22 10:28:00,50.5,45.0,29.33,SW,225,4.2,5.0,82,0.00,,,0.00,Rainwise IP-100,2013-10-22 14:28:00,
2013-10-22 10:33:00,50.7,45.0,29.33,SW,225,5.1,6.0,82,0.00,,,0.00,Rainwise IP-100,2013-10-22 14:33:00,
2013-10-22 10:38:00,50.8,45.0,29.33,SSW,202,5.8,6.0,81,0.00,,,0.00,Rainwise IP-100,2013-10-22 14:38:00,
2013-10-22 10:43:00,51.0,46.0,29.33,SW,225,7.2,7.2,81,0.00,,,0.00,Rainwise IP-100,2013-10-22 14:43:00,
2013-10-22 10:48:00,51.0,46.0,29.32,WSW,247,4.2,9.0,81,0.00,,,0.00,Rainwise IP-100,2013-10-22 14:48:00,
2013-10-22 10:53:00,51.0,46.0,29.32,South,180,2.3,10.0,82,0.00,,,0.00,Rainwise IP-100,2013-10-22 14:53:00,
2013-10-22 10:58:00,50.9,46.0,29.32,SW,225,4.9,8.0,82,0.00,,,0.00,Rainwise IP-100,2013-10-22 14:58:00,
2013-10-22 11:03:00,50.9,46.0,29.32,SW,225,3.5,7.0,82,0.00,,,0.00,Rainwise IP-100,2013-10-22 15:03:00,
2013-10-22 11:08:00,50.9,47.0,29.32,SW,225,5.8,7.0,83,0.00,,,0.00,Rainwise IP-100,2013-10-22 15:08:00,
2013-10-22 11:13:00,50.9,47.0,29.32,SW,225,2.3,8.0,83,0.00,,,0.00,Rainwise IP-100,2013-10-22 15:13:00,
2013-10-22 11:18:00,51.0,47.0,29.32,WSW,247,0.0,4.0,83,0.00,,,0.00,Rainwise IP-100,2013-10-22 15:18:00,
2013-10-22 11:23:00,51.0,47.0,29.32,SSW,202,1.9,5.0,83,0.00,,,0.00,Rainwise IP-100,2013-10-22 15:23:00,
2013-10-22 11:28:00,51.1,47.0,29.32,SSW,202,2.3,4.0,84,0.00,,,0.00,Rainwise IP-100,2013-10-22 15:28:00,
2013-10-22 11:33:00,51.1,47.0,29.32,SW,225,1.4,6.0,84,0.00,,,0.00,Rainwise IP-100,2013-10-22 15:33:00,
2013-10-22 11:38:00,51.1,47.0,29.31,SW,225,7.9,7.9,84,0.00,,,0.00,Rainwise IP-100,2013-10-22 15:38:00,
2013-10-22 11:44:00,51.2,47.0,29.31,SW,225,4.0,8.0,85,0.00,,,0.00,Rainwise IP-100,2013-10-22 15:44:00,
2013-10-22 11:49:00,51.4,47.0,29.31,SSW,202,5.6,11.0,85,0.00,,,0.00,Rainwise IP-100,2013-10-22 15:49:00,
2013-10-22 11:54:00,51.5,47.0,29.30,South,180,4.9,12.0,84,0.00,,,0.00,Rainwise IP-100,2013-10-22 15:54:00,
2013-10-22 11:59:00,51.7,47.0,29.31,South,180,8.9,12.0,84,0.00,,,0.00,Rainwise IP-100,2013-10-22 15:59:00,
2013-10-22 12:04:00,51.7,47.0,29.30,South,180,4.7,13.0,84,0.00,,,0.00,Rainwise IP-100,2013-10-22 16:04:00,
2013-10-22 12:09:00,51.7,47.0,29.30,SSW,202,5.8,10.0,83,0.00,,,0.00,Rainwise IP-100,2013-10-22 16:09:00,
2013-10-22 12:14:00,51.8,47.0,29.30,SW,225,5.6,11.0,83,0.00,,,0.00,Rainwise IP-100,2013-10-22 16:14:00,
2013-10-22 12:19:00,51.8,47.0,29.30,SW,225,8.9,11.0,83,0.00,,,0.00,Rainwise IP-100,2013-10-22 16:19:00,
2013-10-22 12:24:00,51.8,47.0,29.30,WSW,247,3.7,8.0,83,0.00,,,0.00,Rainwise IP-100,2013-10-22 16:24:00,
2013-10-22 12:29:00,52.0,47.0,29.30,SW,225,4.4,7.0,83,0.00,,,0.00,Rainwise IP-100,2013-10-22 16:29:00,
2013-10-22 12:34:00,52.2,47.0,29.29,South,180,2.3,9.0,83,0.00,,,0.00,Rainwise IP-100,2013-10-22 16:34:00,
2013-10-22 12:39:00,52.3,47.0,29.29,SW,225,5.1,9.0,83,0.00,,,0.00,Rainwise IP-100,2013-10-22 16:39:00,
2013-10-22 12:44:00,52.5,47.0,29.29,SSW,202,5.6,12.0,82,0.00,,,0.00,Rainwise IP-100,2013-10-22 16:44:00,
2013-10-22 12:49:00,52.8,47.0,29.29,SSW,202,7.2,12.0,82,0.00,,,0.00,Rainwise IP-100,2013-10-22 16:49:00,
2013-10-22 12:54:00,53.0,47.0,29.28,SSW,202,7.7,12.0,81,0.00,,,0.00,Rainwise IP-100,2013-10-22 16:54:00,
2013-10-22 13:00:00,53.2,47.0,29.28,South,180,10.5,13.0,80,0.00,,,0.00,Rainwise IP-100,2013-10-22 17:00:00,
2013-10-22 13:05:00,53.3,47.0,29.28,SW,225,6.3,12.0,80,0.00,,,0.00,Rainwise IP-100,2013-10-22 17:05:00,
2013-10-22 13:10:00,53.4,47.0,29.28,SSW,202,8.2,8.2,80,0.00,,,0.00,Rainwise IP-100,2013-10-22 17:10:00,
2013-10-22 13:15:00,53.5,47.0,29.28,WSW,247,4.7,9.0,80,0.00,,,0.00,Rainwise IP-100,2013-10-22 17:15:00,
2013-10-22 13:20:00,53.6,47.0,29.27,SSW,202,4.7,10.0,80,0.00,,,0.00,Rainwise IP-100,2013-10-22 17:20:00,
2013-10-22 13:25:00,53.6,47.0,29.27,SW,225,0.0,8.0,80,0.00,,,0.00,Rainwise IP-100,2013-10-22 17:25:00,
2013-10-22 13:30:00,53.5,47.0,29.27,WSW,247,9.3,10.0,81,0.00,,,0.00,Rainwise IP-100,2013-10-22 17:30:00,
2013-10-22 13:35:00,53.5,47.0,29.27,SSW,202,7.0,10.0,81,0.00,,,0.00,Rainwise IP-100,2013-10-22 17:35:00,
2013-10-22 13:40:00,53.6,47.0,29.27,SE,135,3.3,13.0,81,0.00,,,0.00,Rainwise IP-100,2013-10-22 17:40:00,
2013-10-22 13:45:00,53.6,47.0,29.27,SSW,202,8.4,14.0,81,0.00,,,0.00,Rainwise IP-100,2013-10-22 17:45:00,
2013-10-22 13:50:00,53.7,47.0,29.27,South,180,9.1,14.0,80,0.00,,,0.00,Rainwise IP-100,2013-10-22 17:50:00,
2013-10-22 13:55:00,53.9,48.0,29.27,SSW,202,4.9,12.0,80,0.00,,,0.00,Rainwise IP-100,2013-10-22 17:55:00,
2013-10-22 14:00:00,54.3,47.0,29.27,SSW,202,4.7,7.0,79,0.00,,,0.00,Rainwise IP-100,2013-10-22 18:00:00,
2013-10-22 14:05:00,54.5,48.0,29.27,SSE,157,6.3,12.0,78,0.00,,,0.00,Rainwise IP-100,2013-10-22 18:05:00,
2013-10-22 14:10:00,54.5,48.0,29.27,South,180,9.1,11.0,78,0.00,,,0.00,Rainwise IP-100,2013-10-22 18:10:00,
2013-10-22 14:16:00,54.4,48.0,29.27,SSW,202,7.7,14.0,78,0.00,,,0.00,Rainwise IP-100,2013-10-22 18:16:00,
2013-10-22 14:21:00,54.3,47.0,29.27,SE,135,3.5,11.0,78,0.00,,,0.00,Rainwise IP-100,2013-10-22 18:21:00,
2013-10-22 14:26:00,54.2,47.0,29.27,WSW,247,8.4,9.0,78,0.00,,,0.00,Rainwise IP-100,2013-10-22 18:26:00,
2013-10-22 14:31:00,54.2,47.0,29.27,SW,225,5.1,9.0,78,0.00,,,0.00,Rainwise IP-100,2013-10-22 18:31:00,
2013-10-22 14:36:00,54.2,47.0,29.27,SW,225,2.8,11.0,78,0.00,,,0.00,Rainwise IP-100,2013-10-22 18:36:00,
2013-10-22 14:41:00,54.3,47.0,29.27,South,180,2.8,7.0,78,0.00,,,0.00,Rainwise IP-100,2013-10-22 18:41:00,
2013-10-22 14:46:00,54.5,47.0,29.27,SSW,202,5.6,7.0,77,0.00,,,0.00,Rainwise IP-100,2013-10-22 18:46:00,
2013-10-22 14:51:00,54.6,47.0,29.26,SSW,202,4.4,8.0,76,0.00,,,0.00,Rainwise IP-100,2013-10-22 18:51:00,
2013-10-22 14:56:00,54.7,47.0,29.26,South,180,7.0,8.0,75,0.00,,,0.00,Rainwise IP-100,2013-10-22 18:56:00,
2013-10-22 15:01:00,54.8,47.0,29.26,SW,225,4.7,11.0,75,0.00,,,0.00,Rainwise IP-100,2013-10-22 19:01:00,
2013-10-22 15:06:00,54.8,47.0,29.27,WSW,247,4.4,8.0,74,0.00,,,0.00,Rainwise IP-100,2013-10-22 19:06:00,
2013-10-22 15:11:00,54.8,47.0,29.27,WSW,247,3.5,8.0,74,0.00,,,0.00,Rainwise IP-100,2013-10-22 19:11:00,
2013-10-22 15:16:00,54.9,47.0,29.26,West,270,7.2,9.0,73,0.00,,,0.00,Rainwise IP-100,2013-10-22 19:16:00,
2013-10-22 15:21:00,54.9,47.0,29.26,SW,225,6.8,7.0,72,0.00,,,0.00,Rainwise IP-100,2013-10-22 19:21:00,
2013-10-22 15:26:00,54.9,46.0,29.26,SSW,202,3.5,15.0,71,0.00,,,0.00,Rainwise IP-100,2013-10-22 19:26:00,
2013-10-22 15:32:00,55.0,46.0,29.26,WSW,247,10.7,14.0,70,0.00,,,0.00,Rainwise IP-100,2013-10-22 19:32:00,
2013-10-22 15:37:00,55.1,45.0,29.26,SSW,202,4.0,11.0,69,0.00,,,0.00,Rainwise IP-100,2013-10-22 19:37:00,
2013-10-22 15:42:00,55.4,45.0,29.26,SW,225,4.0,8.0,69,0.00,,,0.00,Rainwise IP-100,2013-10-22 19:42:00,
2013-10-22 15:47:00,55.7,46.0,29.26,SW,225,7.7,14.0,68,0.00,,,0.00,Rainwise IP-100,2013-10-22 19:47:00,
2013-10-22 15:52:00,55.8,45.0,29.26,WSW,247,4.7,14.0,67,0.00,,,0.00,Rainwise IP-100,2013-10-22 19:52:00,
2013-10-22 15:57:00,55.7,45.0,29.27,SSW,202,7.9,13.0,66,0.00,,,0.00,Rainwise IP-100,2013-10-22 19:57:00,
2013-10-22 16:02:00,55.6,44.0,29.27,WSW,247,5.4,11.0,65,0.00,,,0.00,Rainwise IP-100,2013-10-22 20:02:00,
2013-10-22 16:07:00,55.6,44.0,29.27,SSE,157,4.2,12.0,65,0.00,,,0.00,Rainwise IP-100,2013-10-22 20:07:00,
2013-10-22 16:12:00,55.6,44.0,29.27,SSW,202,6.3,12.0,65,0.00,,,0.00,Rainwise IP-100,2013-10-22 20:12:00,
2013-10-22 16:17:00,55.2,43.0,29.26,WSW,247,7.7,13.0,64,0.00,,,0.00,Rainwise IP-100,2013-10-22 20:17:00,
2013-10-22 16:22:00,54.8,43.0,29.27,SSE,157,8.2,13.0,64,0.00,,,0.00,Rainwise IP-100,2013-10-22 20:22:00,
2013-10-22 16:27:00,54.7,43.0,29.27,SSW,202,7.7,13.0,64,0.00,,,0.00,Rainwise IP-100,2013-10-22 20:27:00,
2013-10-22 16:32:00,54.5,43.0,29.27,WSW,247,5.4,10.0,65,0.00,,,0.00,Rainwise IP-100,2013-10-22 20:32:00,
2013-10-22 16:37:00,54.4,43.0,29.27,SSW,202,3.7,5.0,65,0.00,,,0.00,Rainwise IP-100,2013-10-22 20:37:00,
2013-10-22 16:42:00,54.3,42.0,29.28,WSW,247,2.1,7.0,65,0.00,,,0.00,Rainwise IP-100,2013-10-22 20:42:00,
2013-10-22 16:48:00,54.2,42.0,29.28,SSW,202,3.5,6.0,65,0.00,,,0.00,Rainwise IP-100,2013-10-22 20:48:00,
2013-10-22 16:53:00,54.0,42.0,29.28,SSW,202,0.0,5.0,65,0.00,,,0.00,Rainwise IP-100,2013-10-22 20:53:00,
2013-10-22 16:58:00,53.9,42.0,29.28,SSW,202,3.0,3.0,64,0.00,,,0.00,Rainwise IP-100,2013-10-22 20:58:00,
2013-10-22 17:03:00,53.8,41.0,29.28,SSW,202,2.3,4.0,64,0.00,,,0.00,Rainwise IP-100,2013-10-22 21:03:00,
2013-10-22 17:08:00,53.7,41.0,29.29,SW,225,0.0,4.0,64,0.00,,,0.00,Rainwise IP-100,2013-10-22 21:08:00,
2013-10-22 17:13:00,53.6,41.0,29.29,WNW,292,0.0,4.0,64,0.00,,,0.00,Rainwise IP-100,2013-10-22 21:13:00,
2013-10-22 17:18:00,53.5,41.0,29.29,WNW,292,1.2,1.2,64,0.00,,,0.00,Rainwise IP-100,2013-10-22 21:18:00,
2013-10-22 17:23:00,53.4,41.0,29.29,WNW,292,0.0,1.0,64,0.00,,,0.00,Rainwise IP-100,2013-10-22 21:23:00,
2013-10-22 17:28:00,53.2,41.0,29.29,WNW,292,0.0,1.0,65,0.00,,,0.00,Rainwise IP-100,2013-10-22 21:28:00,
2013-10-22 17:33:00,52.9,41.0,29.29,WSW,247,0.0,0.0,66,0.00,,,0.00,Rainwise IP-100,2013-10-22 21:33:00,
2013-10-22 17:38:00,52.7,42.0,29.29,WSW,247,1.2,1.2,68,0.00,,,0.00,Rainwise IP-100,2013-10-22 21:38:00,
2013-10-22 17:43:00,52.4,42.0,29.29,SSE,157,0.0,4.0,69,0.00,,,0.00,Rainwise IP-100,2013-10-22 21:43:00,
2013-10-22 17:48:00,52.0,42.0,29.29,SSE,157,0.0,0.0,69,0.00,,,0.00,Rainwise IP-100,2013-10-22 21:48:00,
2013-10-22 17:53:00,51.6,42.0,29.29,South,180,1.2,1.2,69,0.00,,,0.00,Rainwise IP-100,2013-10-22 21:53:00,
2013-10-22 17:58:00,51.2,41.0,29.29,South,180,0.0,1.0,69,0.00,,,0.00,Rainwise IP-100,2013-10-22 21:58:00,
2013-10-22 18:04:00,50.8,41.0,29.30,South,180,0.0,0.0,70,0.00,,,0.00,Rainwise IP-100,2013-10-22 22:04:00,
2013-10-22 18:09:00,50.4,41.0,29.30,South,180,0.0,0.0,70,0.00,,,0.00,Rainwise IP-100,2013-10-22 22:09:00,
2013-10-22 18:14:00,50.3,40.0,29.30,West,270,1.4,3.0,70,0.00,,,0.00,Rainwise IP-100,2013-10-22 22:14:00,
2013-10-22 18:19:00,50.1,40.0,29.30,West,270,1.4,2.0,70,0.00,,,0.00,Rainwise IP-100,2013-10-22 22:19:00,
2013-10-22 18:24:00,49.8,40.0,29.30,WSW,247,0.0,3.0,70,0.00,,,0.00,Rainwise IP-100,2013-10-22 22:24:00,
2013-10-22 18:29:00,49.5,40.0,29.30,WSW,247,1.9,3.0,70,0.00,,,0.00,Rainwise IP-100,2013-10-22 22:29:00,
2013-10-22 18:34:00,49.0,40.0,29.31,SSW,202,3.5,5.0,70,0.00,,,0.00,Rainwise IP-100,2013-10-22 22:34:00,
2013-10-22 18:39:00,48.7,40.0,29.31,WNW,292,1.4,4.0,71,0.00,,,0.00,Rainwise IP-100,2013-10-22 22:39:00,
2013-10-22 18:44:00,48.5,40.0,29.30,West,270,1.2,4.0,72,0.00,,,0.00,Rainwise IP-100,2013-10-22 22:44:00,
2013-10-22 18:49:00,48.2,40.0,29.30,SW,225,1.6,4.0,73,0.00,,,0.00,Rainwise IP-100,2013-10-22 22:49:00,
2013-10-22 18:54:00,47.7,39.0,29.31,WSW,247,2.3,3.0,74,0.00,,,0.00,Rainwise IP-100,2013-10-22 22:54:00,
2013-10-22 18:59:00,47.2,39.0,29.31,WSW,247,2.3,2.3,75,0.00,,,0.00,Rainwise IP-100,2013-10-22 22:59:00,
2013-10-22 19:04:00,46.9,39.0,29.31,SW,225,1.6,3.0,76,0.00,,,0.00,Rainwise IP-100,2013-10-22 23:04:00,
2013-10-22 19:09:00,46.6,40.0,29.31,SW,225,1.4,3.0,77,0.00,,,0.00,Rainwise IP-100,2013-10-22 23:09:00,
2013-10-22 19:14:00,46.3,39.0,29.31,SW,225,2.1,2.1,77,0.00,,,0.00,Rainwise IP-100,2013-10-22 23:14:00,
2013-10-22 19:20:00,46.2,39.0,29.31,SW,225,1.4,2.0,78,0.00,,,0.00,Rainwise IP-100,2013-10-22 23:20:00,
2013-10-22 19:25:00,45.9,39.0,29.31,SW,225,1.9,2.0,78,0.00,,,0.00,Rainwise IP-100,2013-10-22 23:25:00,
2013-10-22 19:30:00,45.5,39.0,29.31,SW,225,2.3,2.3,78,0.00,,,0.00,Rainwise IP-100,2013-10-22 23:30:00,
2013-10-22 19:35:00,45.2,38.0,29.31,SW,225,1.2,2.0,78,0.00,,,0.00,Rainwise IP-100,2013-10-22 23:35:00,
2013-10-22 19:40:00,45.1,39.0,29.31,SW,225,1.9,2.0,79,0.00,,,0.00,Rainwise IP-100,2013-10-22 23:40:00,
2013-10-22 19:45:00,45.2,38.0,29.31,SW,225,1.4,2.0,78,0.00,,,0.00,Rainwise IP-100,2013-10-22 23:45:00,
2013-10-22 19:50:00,45.1,38.0,29.31,SW,225,1.2,2.0,77,0.00,,,0.00,Rainwise IP-100,2013-10-22 23:50:00,
2013-10-22 19:55:00,44.5,38.0,29.31,SW,225,1.6,2.0,78,0.00,,,0.00,Rainwise IP-100,2013-10-22 23:55:00,
2013-10-22 20:00:00,44.2,38.0,29.31,SW,225,2.3,2.3,78,0.00,,,0.00,Rainwise IP-100,2013-10-23 00:00:00,
2013-10-22 20:05:00,44.4,37.0,29.31,SW,225,1.9,2.0,77,0.00,,,0.00,Rainwise IP-100,2013-10-23 00:05:00,
2013-10-22 20:10:00,44.1,37.0,29.31,SW,225,0.0,2.0,77,0.00,,,0.00,Rainwise IP-100,2013-10-23 00:10:00,
2013-10-22 20:15:00,43.7,38.0,29.31,SW,225,1.6,2.0,78,0.00,,,0.00,Rainwise IP-100,2013-10-23 00:15:00,
2013-10-22 20:20:00,43.5,38.0,29.31,SW,225,1.9,3.0,78,0.00,,,0.00,Rainwise IP-100,2013-10-23 00:20:00,
2013-10-22 20:25:00,43.0,37.0,29.32,SW,225,1.6,3.0,79,0.00,,,0.00,Rainwise IP-100,2013-10-23 00:25:00,
2013-10-22 20:30:00,42.5,37.0,29.31,SW,225,1.9,1.9,79,0.00,,,0.00,Rainwise IP-100,2013-10-23 00:30:00,
2013-10-22 20:36:00,42.2,36.0,29.32,SW,225,2.3,3.0,79,0.00,,,0.00,Rainwise IP-100,2013-10-23 00:36:00,
2013-10-22 20:41:00,42.0,36.0,29.31,SW,225,2.8,3.0,79,0.00,,,0.00,Rainwise IP-100,2013-10-23 00:41:00,
2013-10-22 20:46:00,42.0,36.0,29.32,SW,225,0.0,3.0,79,0.00,,,0.00,Rainwise IP-100,2013-10-23 00:46:00,
2013-10-22 20:51:00,42.3,36.0,29.32,SSW,202,0.0,4.0,78,0.00,,,0.00,Rainwise IP-100,2013-10-23 00:51:00,
2013-10-22 20:56:00,42.5,37.0,29.33,ESE,112,0.0,2.0,77,0.00,,,0.00,Rainwise IP-100,2013-10-23 00:56:00,
2013-10-22 21:01:00,42.5,37.0,29.33,ENE,67,0.0,1.0,78,0.00,,,0.00,Rainwise IP-100,2013-10-23 01:01:00,
2013-10-22 21:06:00,42.3,36.0,29.33,ENE,67,1.4,1.4,79,0.00,,,0.00,Rainwise IP-100,2013-10-23 01:06:00,
2013-10-22 21:11:00,41.4,36.0,29.33,NNE,22,0.0,3.0,80,0.00,,,0.00,Rainwise IP-100,2013-10-23 01:11:00,
2013-10-22 21:16:00,40.8,36.0,29.33,ESE,112,0.0,2.0,81,0.00,,,0.00,Rainwise IP-100,2013-10-23 01:16:00,
2013-10-22 21:21:00,41.1,36.0,29.33,East,90,0.0,3.0,80,0.00,,,0.00,Rainwise IP-100,2013-10-23 01:21:00,
2013-10-22 21:26:00,41.7,36.0,29.33,East,90,0.0,3.0,79,0.00,,,0.00,Rainwise IP-100,2013-10-23 01:26:00,
2013-10-22 21:31:00,42.5,37.0,29.34,ENE,67,0.0,3.0,77,0.00,,,0.00,Rainwise IP-100,2013-10-23 01:31:00,
2013-10-22 21:36:00,43.0,36.0,29.34,ENE,67,1.2,1.2,75,0.00,,,0.00,Rainwise IP-100,2013-10-23 01:36:00,
2013-10-22 21:41:00,43.0,36.0,29.34,ENE,67,1.6,3.0,76,0.00,,,0.00,Rainwise IP-100,2013-10-23 01:41:00,
2013-10-22 21:46:00,42.4,36.0,29.34,ENE,67,1.4,3.0,78,0.00,,,0.00,Rainwise IP-100,2013-10-23 01:46:00,
2013-10-22 21:52:00,42.0,37.0,29.35,ENE,67,0.0,2.0,80,0.00,,,0.00,Rainwise IP-100,2013-10-23 01:52:00,
2013-10-22 21:57:00,41.5,37.0,29.34,ENE,67,0.0,0.0,81,0.00,,,0.00,Rainwise IP-100,2013-10-23 01:57:00,
2013-10-22 22:02:00,41.1,36.0,29.34,ENE,67,0.0,1.0,82,0.00,,,0.00,Rainwise IP-100,2013-10-23 02:02:00,
2013-10-22 22:07:00,40.7,37.0,29.34,ENE,67,0.0,0.0,83,0.00,,,0.00,Rainwise IP-100,2013-10-23 02:07:00,
2013-10-22 22:12:00,40.3,36.0,29.34,ENE,67,0.0,0.0,83,0.00,,,0.00,Rainwise IP-100,2013-10-23 02:12:00,
2013-10-22 22:17:00,40.0,36.0,29.34,ENE,67,0.0,0.0,85,0.00,,,0.00,Rainwise IP-100,2013-10-23 02:17:00,
2013-10-22 22:22:00,39.7,37.0,29.34,ENE,67,0.0,0.0,86,0.00,,,0.00,Rainwise IP-100,2013-10-23 02:22:00,
2013-10-22 22:27:00,39.4,36.0,29.34,SSW,202,3.3,3.3,87,0.00,,,0.00,Rainwise IP-100,2013-10-23 02:27:00,
2013-10-22 22:32:00,39.3,36.0,29.34,West,270,0.0,3.0,88,0.00,,,0.00,Rainwise IP-100,2013-10-23 02:32:00,
2013-10-22 22:37:00,39.2,36.0,29.34,West,270,1.2,1.2,88,0.00,,,0.00,Rainwise IP-100,2013-10-23 02:37:00,
2013-10-22 22:42:00,39.0,36.0,29.34,NNW,337,3.0,3.0,88,0.00,,,0.00,Rainwise IP-100,2013-10-23 02:42:00,
2013-10-22 22:47:00,38.8,36.0,29.34,NNW,337,0.0,4.0,88,0.00,,,0.00,Rainwise IP-100,2013-10-23 02:47:00,
2013-10-22 22:52:00,38.5,36.0,29.34,NNW,337,0.0,0.0,88,0.00,,,0.00,Rainwise IP-100,2013-10-23 02:52:00,
2013-10-22 22:57:00,38.2,35.0,29.34,NNW,337,0.0,0.0,89,0.00,,,0.00,Rainwise IP-100,2013-10-23 02:57:00,
2013-10-22 23:02:00,37.9,35.0,29.34,NNW,337,0.0,1.0,89,0.00,,,0.00,Rainwise IP-100,2013-10-23 03:02:00,
2013-10-22 23:08:00,37.5,36.0,29.34,NNW,337,0.0,2.0,90,0.00,,,0.00,Rainwise IP-100,2013-10-23 03:08:00,
2013-10-22 23:13:00,37.1,35.0,29.34,NNW,337,0.0,4.0,89,0.00,,,0.00,Rainwise IP-100,2013-10-23 03:13:00,
2013-10-22 23:18:00,36.9,35.0,29.34,NNW,337,3.5,4.0,89,0.00,,,0.00,Rainwise IP-100,2013-10-23 03:18:00,
2013-10-22 23:23:00,36.9,33.0,29.33,NNW,337,4.4,4.4,87,0.00,,,0.00,Rainwise IP-100,2013-10-23 03:23:00,
2013-10-22 23:28:00,36.9,33.0,29.33,NNW,337,1.9,4.0,86,0.00,,,0.00,Rainwise IP-100,2013-10-23 03:28:00,
2013-10-22 23:33:00,36.8,33.0,29.34,NNW,337,0.0,3.0,86,0.00,,,0.00,Rainwise IP-100,2013-10-23 03:33:00,
2013-10-22 23:38:00,36.7,33.0,29.34,NNW,337,0.0,0.0,87,0.00,,,0.00,Rainwise IP-100,2013-10-23 03:38:00,
2013-10-22 23:43:00,36.4,32.0,29.33,NNW,337,2.1,3.0,87,0.00,,,0.00,Rainwise IP-100,2013-10-23 03:43:00,
2013-10-22 23:48:00,36.0,32.0,29.34,NNW,337,0.0,2.0,87,0.00,,,0.00,Rainwise IP-100,2013-10-23 03:48:00,
2013-10-22 23:53:00,35.6,32.0,29.33,NNW,337,1.2,1.2,87,0.00,,,0.00,Rainwise IP-100,2013-10-23 03:53:00,
2013-10-22 23:58:00,35.3,32.0,29.33,NNW,337,0.0,1.0,88,0.00,,,0.00,Rainwise IP-100,2013-10-23 03:58:00,